Regional Weather Roundup
Issued by NWS

Home | Current Version | Previous Version | Text Only | Print | Product List | Glossary Off
Versions: 1 2 3 4 5 6 7 8 9 10 11 12 13 14 15 16 17 18 19 20 21 22 23 24 25 26 27 28 29 30 31 32 33 34 35 36 37 38 39 40 41 42 43 44 45 46 47 48 49 50

155
ASUS43 KLMK 091910
RWRKY
KENTUCKY REGIONAL WEATHER ROUNDUP
NATIONAL WEATHER SERVICE LOUISVILLE KY
200 PM EST FRI DEC 09 2016

NOTE "FAIR" INDICATES FEW OR NO CLOUDS BELOW 12,000 FEET
WITH NO SIGNIFICANT WEATHER AND/OR OBSTRUCTIONS TO VISIBILITY.

KYZ001>023-026-027-061>063-070>075-092000-
WESTERN AND SOUTH CENTRAL KENTUCKY

CITY           SKY/WX    TMP DP  RH WIND       PRES   REMARKS
PADUCAH        SUNNY     32  13  45 VRB6      30.60F WCI  26
HENDERSON      PTSUNNY   28  12  50 W8        30.60S WCI  20
OWENSBORO      CLOUDY    27  16  63 W6        30.60F WCI  20
HOPKINSVILLE   SUNNY     32  16  50 VRB7      30.57F WCI  26
BOWLING GREEN  MOSUNNY   33  15  47 NW5       30.57F WCI  29
GLASGOW        MOSUNNY   32  16  52 W7        30.56S WCI  25
$$

KYZ024-025-028>034-038-045-046-053-092000-
NORTH CENTRAL KENTUCKY

CITY           SKY/WX    TMP DP  RH WIND       PRES   REMARKS
LOUISVILLE/SDF PTSUNNY   28  11  48 VRB5      30.56F WCI  23
LOUISVILLE/LOU CLOUDY    28  14  55 VRB3      30.57F
FORT KNOX      CLOUDY    26  14  61 W8        30.54R WCI  17
$$

KYZ035>037-039>044-047>052-055>060-089>105-092000-
NORTHEAST KENTUCKY

CITY           SKY/WX    TMP DP  RH WIND       PRES   REMARKS
LEXINGTON      CLOUDY    25  13  60 VRB6      30.52F WCI  18
COVINGTON      CLOUDY    24  13  62 W8        30.51F WCI  15
FRANKFORT      CLOUDY    24  12  60 NW6       30.53F WCI  17
$$

KYZ054-064>069-076>088-106>120-092000-
SOUTHEAST KENTUCKY

CITY           SKY/WX    TMP DP  RH WIND       PRES   REMARKS
JACKSON        CLOUDY    24  14  65 VRB3      30.49S
LONDON         PTSUNNY   27  13  55 VRB5      30.50F WCI  22
SOMERSET       CLOUDY    28  14  54 W6        30.54F WCI  22
MIDDLESBORO    SUNNY     31  15  50 CALM      30.49F
MONTICELLO     CLOUDY    27  17  66 N9        30.55F WCI  18
$$





USA.gov is the U.S. government's official web portal to all federal, state and local government web resources and services.